Regional Weather Roundup
Issued by NWS

Home | Current Version | Previous Version | Text Only | Print | Product List | Glossary On
Versions: 1 2 3 4 5 6 7 8 9 10 11 12 13 14 15 16 17 18 19 20 21 22 23 24 25 26 27 28 29 30 31 32 33 34 35 36 37 38 39 40 41 42 43 44 45 46 47 48 49
000
ASUS45 KCYS 161010
RWRWY

WYOMING REGIONAL WEATHER ROUNDUP
NATIONAL WEATHER SERVICE CHEYENNE WY
400 AM MDT TUE SEP 16 2014

NOTE:  "FAIR" INDICATES FEW OR NO CLOUDS BELOW 12,000 FEET
WITH NO SIGNIFICANT WEATHER AND/OR OBSTRUCTIONS TO VISIBILITY.

WYZ001-161100-
YELLOWSTONE NATIONAL PARK

CITY           SKY/WX    TMP DP  RH WIND       PRES   REMARKS
LK YELLOWSTONE   N/A     33  29  85 CALM      30.35F
W YELLOWSTONE  NOT AVBL

$$
WYZ002>013-054>058-071-098>099-161100-
NORTHERN WYOMING

CITY           SKY/WX    TMP DP  RH WIND       PRES   REMARKS
JACKSON        PTCLDY    37  30  75 N6        30.29S WCI  33
CODY           MOCLDY    55  37  50 SW12      30.14F
GREYBULL       CLEAR     50  44  80 E3        30.11S
WORLAND        CLEAR     50  43  77 S7        30.12S
SHERIDAN       CLEAR     43  38  82 CALM      30.07F
BUFFALO        CLEAR     57  33  40 W9        30.14S
GILLETTE       CLEAR     55  43  63 SW6       30.10S
HULETT         FAIR      48  41  76 MISG      30.10
NEWCASTLE      FAIR      48  41  76 CALM      30.10

$$
WYZ014>020-022>026-101>103-161100-
CENTRAL WYOMING

CITY           SKY/WX    TMP DP  RH WIND       PRES   REMARKS
BIG PINEY      PTCLDY    38  27  64 CALM      30.33R
PINEDALE       MOSUNNY   34  30  86 W6        30.34S WCI  29
DUBOIS         FAIR      43  27  52 NW12      30.30S
LANDER         CLEAR     53  34  48 CALM      30.19S
RIVERTON       CLEAR     50  36  58 W8        30.20S
CASPER         PTCLDY    45  38  76 W5        30.18R
DOUGLAS        PTCLDY    48  43  82 N6        30.14S

$$
WYZ021-027>030-104>119-161100-
SOUTHERN WYOMING

CITY           SKY/WX    TMP DP  RH WIND       PRES   REMARKS
EVANSTON       PTCLDY    53  30  41 SE7       30.31F
KEMMERER       MOSUNNY   43  32  65 N10       30.33F
FORT BRIDGER   FAIR      56  32  40 S7        30.33F
ROCK SPRINGS   CLEAR     55  33  43 N3        30.30S
DIXON          CLOUDY    47  40  76 CALM      30.33R
RAWLINS        CLEAR     55  33  43 SW5       30.28S
SARATOGA       CLOUDY    50  36  57 SE3       30.31S
LARAMIE        PTCLDY    47  36  65 SE10      30.29F
CHEYENNE       PTCLDY    56  38  50 W13       30.20F
TORRINGTON     MOCLDY    50  48  93 NE8       30.08F
PINE BLUFFS    FAIR      46  46 100 S8        30.16S

$$


USA.gov is the U.S. government's official web portal to all federal, state and local government web resources and services.